QPF
0.00 0.00 0.00 0.00 0.00 0.00 0.00 0.00 0.00 0.00 0.00 0.00 0.00 0.00 0.00 0.00 0.00 0.00 0.00 0.00 0.00 0.00 0.00 0.00 0.00 0.00 0.00 0.00 0.00 0.00 0.01 0.03 0.05 0.01 0.00 0.00 0.00 0.00 0.00 0.00 0.00 0.00 0.00
0.00 0.00 0.00 0.00 0.00 0.00 0.00 0.00 0.00 0.00 0.00 0.00 0.00 0.00 0.00 0.00 0.00 0.00 0.00 0.00 0.00 0.00 0.00 0.01 0.01 0.01 0.01 0.00 0.00 0.00 0.00 0.01 0.03 0.02 0.00 0.00 0.00 0.00 0.00 0.00 0.00 0.00 0.00
0.00 0.00 0.00 0.00 0.00 0.00 0.00 0.00 0.00 0.00 0.00 0.00 0.00 0.00 0.00 0.00 0.00 0.00 0.00 0.00 0.01 0.01 0.02 0.02 0.02 0.02 0.01 0.00 0.00 0.00 0.01 0.01 0.02 0.03 0.01 0.00 0.00 0.00 0.00 0.00 0.00 0.00 0.00
0.00 0.00 0.00 0.00 0.00 0.00 0.00 0.00 0.00 0.00 0.00 0.00 0.00 0.00 0.00 0.00 0.00 0.00 0.00 0.02 0.03 0.03 0.03 0.03 0.03 0.02 0.01 0.00 0.01 0.02 0.03 0.04 0.04 0.03 0.01 0.00 0.00 0.00 0.00 0.00 0.00 0.00 0.00
0.00 0.00 0.00 0.00 0.00 0.00 0.00 0.00 0.00 0.00 0.00 0.00 0.00 0.00 0.00 0.00 0.00 0.00 0.05 0.11 0.09 0.06 0.03 0.02 0.01 0.01 0.02 0.02 0.04 0.04 0.07 0.09 0.04 0.02 0.01 0.01 0.00 0.00 0.00 0.00 0.00 0.00 0.00
0.00 0.00 0.00 0.00 0.00 0.00 0.00 0.00 0.00 0.00 0.00 0.00 0.00 0.00 0.00 0.00 0.00 0.01 0.07 0.11 0.09 0.04 0.02 0.01 0.01 0.01 0.01 0.01 0.02 0.06 0.07 0.05 0.03 0.03 0.03 0.01 0.00 0.00 0.00 0.00 0.00 0.01 0.00
0.00 0.00 0.00 0.00 0.00 0.00 0.00 0.00 0.00 0.00 0.00 0.00 0.00 0.00 0.00 0.00 0.00 0.02 0.07 0.09 0.04 0.01 0.01 0.01 0.00 0.00 0.00 0.01 0.05 0.05 0.02 0.01 0.02 0.04 0.03 0.01 0.01 0.00 0.00 0.01 0.01 0.01 0.01
0.00 0.00 0.00 0.00 0.00 0.00 0.00 0.00 0.00 0.00 0.00 0.00 0.00 0.00 0.00 0.00 0.00 0.01 0.06 0.06 0.02 0.00 0.00 0.00 0.00 0.00 0.00 0.06 0.12 0.04 0.01 0.00 0.01 0.02 0.03 0.03 0.02 0.03 0.05 0.04 0.02 0.01 0.00
0.00 0.00 0.00 0.00 0.00 0.00 0.00 0.00 0.00 0.00 0.00 0.00 0.00 0.00 0.00 0.00 0.00 0.01 0.05 0.04 0.01 0.00 0.00 0.00 0.00 0.00 0.01 0.08 0.07 0.02 0.01 0.01 0.01 0.01 0.02 0.02 0.03 0.04 0.05 0.06 0.04 0.02 0.01
0.00 0.00 0.00 0.00 0.00 0.00 0.00 0.00 0.00 0.00 0.00 0.00 0.00 0.00 0.00 0.00 0.00 0.01 0.05 0.05 0.02 0.01 0.00 0.00 0.00 0.01 0.05 0.05 0.03 0.01 0.04 0.06 0.02 0.00 0.00 0.00 0.00 0.00 0.01 0.02 0.02 0.02 0.02
0.00 0.00 0.00 0.00 0.00 0.00 0.01 0.01 0.00 0.00 0.00 0.00 0.00 0.00 0.00 0.00 0.00 0.01 0.03 0.05 0.05 0.02 0.00 0.00 0.00 0.03 0.05 0.03 0.01 0.02 0.07 0.06 0.01 0.00 0.00 0.00 0.00 0.00 0.00 0.00 0.01 0.02 0.02
0.00 0.00 0.00 0.00 0.00 0.01 0.01 0.01 0.01 0.00 0.00 0.00 0.00 0.00 0.00 0.00 0.00 0.00 0.02 0.03 0.03 0.01 0.00 0.01 0.01 0.03 0.02 0.01 0.01 0.03 0.03 0.01 0.01 0.01 0.01 0.01 0.01 0.01 0.01 0.01 0.01 0.01 0.02
0.00 0.00 0.00 0.01 0.01 0.02 0.02 0.02 0.01 0.01 0.00 0.00 0.00 0.00 0.00 0.00 0.00 0.00 0.01 0.02 0.01 0.01 0.01 0.01 0.01 0.01 0.00 0.00 0.01 0.02 0.01 0.01 0.02 0.02 0.02 0.02 0.02 0.02 0.02 0.01 0.01 0.01 0.03
0.00 0.00 0.01 0.01 0.02 0.02 0.02 0.02 0.01 0.01 0.00 0.00 0.00 0.00 0.00 0.00 0.00 0.00 0.01 0.01 0.01 0.01 0.01 0.00 0.00 0.00 0.00 0.00 0.00 0.00 0.00 0.01 0.02 0.03 0.04 0.03 0.02 0.02 0.02 0.03 0.03 0.03 0.04
0.00 0.01 0.01 0.02 0.03 0.03 0.03 0.02 0.02 0.01 0.00 0.00 0.00 0.00 0.00 0.00 0.00 0.01 0.01 0.01 0.01 0.01 0.01 0.00 0.00 0.00 0.00 0.00 0.00 0.00 0.00 0.01 0.01 0.02 0.03 0.04 0.03 0.03 0.03 0.03 0.04 0.05 0.07
0.00 0.01 0.02 0.03 0.03 0.03 0.03 0.03 0.02 0.01 0.00 0.00 0.00 0.00 0.00 0.00 0.00 0.00 0.01 0.01 0.01 0.01 0.00 0.00 0.00 0.00 0.00 0.01 0.01 0.01 0.01 0.01 0.01 0.01 0.03 0.04 0.05 0.04 0.04 0.03 0.04 0.05 0.07
0.00 0.01 0.02 0.03 0.03 0.03 0.03 0.02 0.02 0.01 0.00 0.00 0.00 0.00 0.00 0.00 0.00 0.00 0.00 0.00 0.00 0.00 0.00 0.00 0.00 0.00 0.01 0.01 0.02 0.02 0.02 0.01 0.01 0.01 0.02 0.03 0.04 0.04 0.04 0.04 0.04 0.05 0.07
0.01 0.01 0.02 0.03 0.04 0.03 0.03 0.02 0.02 0.01 0.00 0.00 0.00 0.00 0.00 0.00 0.00 0.00 0.00 0.00 0.00 0.00 0.00 0.00 0.01 0.01 0.01 0.02 0.02 0.02 0.02 0.01 0.01 0.01 0.01 0.02 0.03 0.04 0.04 0.03 0.04 0.05 0.07
0.01 0.01 0.02 0.03 0.03 0.03 0.03 0.03 0.02 0.01 0.00 0.00 0.00 0.00 0.00 0.00 0.00 0.00 0.00 0.00 0.00 0.00 0.00 0.00 0.01 0.01 0.01 0.02 0.02 0.02 0.02 0.02 0.01 0.01 0.01 0.01 0.01 0.02 0.03 0.03 0.03 0.04 0.05
0.00 0.01 0.02 0.03 0.03 0.03 0.03 0.03 0.02 0.01 0.00 0.00 0.00 0.00 0.00 0.00 0.00 0.00 0.00 0.00 0.00 0.00 0.00 0.00 0.00 0.01 0.01 0.02 0.02 0.02 0.02 0.02 0.01 0.01 0.01 0.01 0.01 0.01 0.02 0.03 0.03 0.03 0.04
0.00 0.01 0.02 0.03 0.03 0.03 0.03 0.03 0.02 0.01 0.00 0.00 0.00 0.00 0.00 0.00 0.00 0.00 0.00 0.00 0.00 0.00 0.00 0.00 0.00 0.01 0.01 0.02 0.02 0.02 0.02 0.02 0.01 0.01 0.01 0.00 0.00 0.01 0.01 0.02 0.02 0.03 0.03
0.00 0.01 0.02 0.03 0.03 0.03 0.03 0.03 0.02 0.01 0.00 0.00 0.00 0.00 0.00 0.00 0.00 0.00 0.00 0.00 0.00 0.00 0.00 0.00 0.01 0.01 0.02 0.03 0.03 0.03 0.03 0.02 0.01 0.01 0.01 0.00 0.00 0.00 0.00 0.01 0.01 0.02 0.02
0.00 0.01 0.02 0.03 0.03 0.03 0.03 0.03 0.02 0.01 0.00 0.00 0.00 0.00 0.00 0.00 0.00 0.00 0.00 0.00 0.00 0.00 0.00 0.00 0.00 0.01 0.01 0.02 0.03 0.04 0.04 0.03 0.02 0.01 0.01 0.00 0.00 0.00 0.00 0.00 0.01 0.01 0.01
0.00 0.02 0.03 0.03 0.03 0.03 0.03 0.03 0.02 0.01 0.00 0.00 0.00 0.00 0.00 0.00 0.00 0.00 0.00 0.00 0.00 0.00 0.00 0.00 0.00 0.01 0.01 0.01 0.02 0.04 0.04 0.03 0.02 0.01 0.00 0.00 0.00 0.00 0.00 0.00 0.00 0.00 0.01
0.01 0.02 0.02 0.03 0.03 0.03 0.03 0.03 0.02 0.01 0.00 0.00 0.00 0.00 0.00 0.00 0.00 0.00 0.00 0.00 0.00 0.00 0.00 0.00 0.00 0.00 0.01 0.01 0.02 0.04 0.03 0.02 0.01 0.01 0.00 0.00 0.00 0.00 0.00 0.00 0.00 0.00 0.00
0.01 0.02 0.02 0.03 0.03 0.03 0.03 0.03 0.02 0.01 0.01 0.00 0.00 0.00 0.00 0.00 0.00 0.00 0.00 0.00 0.00 0.00 0.00 0.00 0.00 0.00 0.00 0.01 0.01 0.03 0.03 0.01 0.01 0.00 0.00 0.00 0.00 0.00 0.00 0.00 0.00 0.00 0.00
MSLP
1020.81 1021.59 1022.36 1023.09 1023.72 1024.24 1024.65 1024.94 1025.14 1025.27 1025.35 1025.37 1025.34 1025.24 1025.05 1024.76 1024.38 1023.92 1023.40 1022.87 1022.37 1021.92 1021.54 1021.22 1020.92 1020.62 1020.26 1019.81 1019.24 1018.55 1017.74 1016.85 1015.92 1014.99 1014.10 1013.27 1012.51 1011.81 1011.16 1010.53 1009.91 1009.30 1008.68
1020.00 1020.78 1021.55 1022.28 1022.92 1023.46 1023.89 1024.21 1024.44 1024.60 1024.70 1024.73 1024.69 1024.56 1024.34 1024.01 1023.58 1023.06 1022.49 1021.91 1021.35 1020.84 1020.40 1020.02 1019.69 1019.35 1018.99 1018.55 1018.01 1017.37 1016.64 1015.84 1015.00 1014.18 1013.39 1012.65 1011.97 1011.34 1010.73 1010.13 1009.51 1008.88 1008.23
1019.23 1020.01 1020.78 1021.49 1022.13 1022.67 1023.10 1023.43 1023.68 1023.85 1023.96 1023.99 1023.94 1023.80 1023.55 1023.19 1022.72 1022.16 1021.55 1020.93 1020.32 1019.77 1019.28 1018.86 1018.48 1018.12 1017.73 1017.29 1016.78 1016.18 1015.51 1014.79 1014.05 1013.32 1012.63 1011.99 1011.40 1010.83 1010.27 1009.69 1009.08 1008.42 1007.72
1018.46 1019.24 1020.00 1020.71 1021.33 1021.85 1022.27 1022.61 1022.86 1023.04 1023.15 1023.18 1023.12 1022.96 1022.69 1022.30 1021.80 1021.23 1020.59 1019.94 1019.31 1018.73 1018.21 1017.76 1017.35 1016.95 1016.55 1016.10 1015.60 1015.03 1014.41 1013.75 1013.09 1012.45 1011.85 1011.30 1010.78 1010.28 1009.77 1009.22 1008.61 1007.93 1007.19
1017.65 1018.45 1019.20 1019.89 1020.49 1021.00 1021.42 1021.75 1022.00 1022.19 1022.29 1022.32 1022.25 1022.08 1021.79 1021.39 1020.87 1020.28 1019.63 1018.97 1018.33 1017.74 1017.21 1016.73 1016.30 1015.89 1015.47 1015.02 1014.51 1013.96 1013.37 1012.76 1012.15 1011.58 1011.05 1010.57 1010.12 1009.68 1009.22 1008.70 1008.11 1007.42 1006.65
1016.77 1017.58 1018.34 1019.02 1019.62 1020.12 1020.54 1020.88 1021.14 1021.33 1021.45 1021.48 1021.40 1021.22 1020.91 1020.49 1019.97 1019.36 1018.71 1018.05 1017.40 1016.81 1016.28 1015.80 1015.36 1014.94 1014.51 1014.05 1013.54 1012.99 1012.41 1011.82 1011.25 1010.72 1010.24 1009.81 1009.42 1009.03 1008.62 1008.14 1007.58 1006.91 1006.14
1015.80 1016.63 1017.39 1018.08 1018.68 1019.20 1019.64 1020.00 1020.29 1020.51 1020.64 1020.68 1020.61 1020.42 1020.10 1019.66 1019.12 1018.51 1017.85 1017.19 1016.55 1015.97 1015.44 1014.97 1014.53 1014.10 1013.66 1013.19 1012.67 1012.11 1011.53 1010.95 1010.39 1009.87 1009.42 1009.02 1008.67 1008.33 1007.97 1007.55 1007.03 1006.40 1005.66
1014.74 1015.58 1016.35 1017.06 1017.69 1018.24 1018.72 1019.13 1019.46 1019.72 1019.89 1019.95 1019.89 1019.70 1019.37 1018.92 1018.37 1017.75 1017.09 1016.43 1015.80 1015.22 1014.70 1014.23 1013.80 1013.37 1012.92 1012.44 1011.91 1011.34 1010.74 1010.14 1009.57 1009.05 1008.60 1008.22 1007.89 1007.59 1007.28 1006.91 1006.45 1005.89 1005.19
1013.61 1014.45 1015.24 1015.97 1016.64 1017.24 1017.77 1018.24 1018.64 1018.95 1019.17 1019.27 1019.23 1019.04 1018.72 1018.27 1017.71 1017.08 1016.42 1015.77 1015.15 1014.58 1014.07 1013.61 1013.18 1012.75 1012.29 1011.80 1011.25 1010.66 1010.04 1009.41 1008.82 1008.28 1007.82 1007.43 1007.11 1006.83 1006.55 1006.24 1005.85 1005.35 1004.73
1012.44 1013.27 1014.08 1014.84 1015.55 1016.20 1016.80 1017.34 1017.81 1018.18 1018.45 1018.59 1018.58 1018.41 1018.10 1017.66 1017.11 1016.49 1015.84 1015.20 1014.60 1014.05 1013.55 1013.10 1012.67 1012.23 1011.77 1011.26 1010.70 1010.08 1009.44 1008.79 1008.17 1007.60 1007.11 1006.70 1006.36 1006.08 1005.82 1005.54 1005.20 1004.78 1004.23
1011.27 1012.09 1012.90 1013.68 1014.43 1015.14 1015.80 1016.40 1016.93 1017.36 1017.68 1017.86 1017.89 1017.75 1017.47 1017.06 1016.54 1015.95 1015.34 1014.73 1014.15 1013.62 1013.14 1012.69 1012.27 1011.83 1011.36 1010.83 1010.25 1009.62 1008.96 1008.28 1007.63 1007.03 1006.50 1006.05 1005.69 1005.39 1005.11 1004.84 1004.53 1004.15 1003.68
1010.14 1010.94 1011.75 1012.55 1013.33 1014.07 1014.78 1015.43 1016.00 1016.48 1016.84 1017.06 1017.12 1017.03 1016.80 1016.43 1015.97 1015.44 1014.88 1014.33 1013.79 1013.30 1012.84 1012.41 1011.98 1011.54 1011.06 1010.52 1009.93 1009.28 1008.60 1007.91 1007.23 1006.59 1006.03 1005.54 1005.12 1004.77 1004.46 1004.16 1003.84 1003.48 1003.04
1009.07 1009.84 1010.65 1011.45 1012.25 1013.02 1013.76 1014.43 1015.03 1015.53 1015.92 1016.17 1016.27 1016.23 1016.06 1015.77 1015.39 1014.95 1014.47 1013.99 1013.52 1013.08 1012.65 1012.23 1011.81 1011.36 1010.86 1010.32 1009.72 1009.07 1008.38 1007.67 1006.98 1006.32 1005.72 1005.17 1004.70 1004.28 1003.90 1003.54 1003.17 1002.77 1002.33
1008.06 1008.82 1009.61 1010.43 1011.23 1012.02 1012.76 1013.44 1014.04 1014.55 1014.94 1015.21 1015.36 1015.37 1015.28 1015.08 1014.81 1014.48 1014.11 1013.73 1013.34 1012.95 1012.56 1012.15 1011.73 1011.27 1010.77 1010.21 1009.60 1008.95 1008.27 1007.58 1006.88 1006.21 1005.57 1004.98 1004.44 1003.93 1003.46 1003.00 1002.54 1002.07 1001.58
1007.10 1007.85 1008.66 1009.47 1010.28 1011.07 1011.80 1012.47 1013.05 1013.55 1013.94 1014.23 1014.41 1014.49 1014.49 1014.40 1014.25 1014.05 1013.80 1013.53 1013.23 1012.90 1012.55 1012.16 1011.73 1011.26 1010.74 1010.17 1009.56 1008.92 1008.26 1007.59 1006.91 1006.24 1005.59 1004.96 1004.35 1003.75 1003.17 1002.59 1002.01 1001.43 1000.84
1006.17 1006.94 1007.75 1008.58 1009.40 1010.18 1010.90 1011.55 1012.11 1012.58 1012.97 1013.27 1013.49 1013.64 1013.72 1013.76 1013.74 1013.67 1013.56 1013.40 1013.19 1012.92 1012.60 1012.22 1011.78 1011.29 1010.75 1010.17 1009.57 1008.95 1008.31 1007.67 1007.03 1006.39 1005.75 1005.10 1004.43 1003.75 1003.06 1002.35 1001.63 1000.91 1000.19
1005.26 1006.05 1006.89 1007.73 1008.56 1009.34 1010.04 1010.67 1011.21 1011.66 1012.04 1012.36 1012.62 1012.84 1013.02 1013.17 1013.29 1013.36 1013.37 1013.32 1013.19 1012.98 1012.68 1012.30 1011.84 1011.33 1010.77 1010.18 1009.59 1008.99 1008.40 1007.81 1007.22 1006.63 1006.01 1005.35 1004.65 1003.91 1003.11 1002.28 1001.43 1000.56 999.70
1004.35 1005.16 1006.03 1006.90 1007.74 1008.52 1009.21 1009.82 1010.34 1010.79 1011.17 1011.50 1011.81 1012.10 1012.38 1012.65 1012.89 1013.08 1013.22 1013.26 1013.20 1013.03 1012.75 1012.37 1011.89 1011.35 1010.77 1010.18 1009.59 1009.02 1008.48 1007.96 1007.44 1006.91 1006.33 1005.70 1004.99 1004.20 1003.34 1002.40 1001.42 1000.43 999.43
1003.44 1004.28 1005.16 1006.05 1006.90 1007.69 1008.38 1008.98 1009.49 1009.93 1010.32 1010.69 1011.04 1011.41 1011.79 1012.16 1012.51 1012.82 1013.06 1013.19 1013.19 1013.05 1012.78 1012.39 1011.89 1011.33 1010.74 1010.14 1009.57 1009.04 1008.55 1008.10 1007.65 1007.19 1006.68 1006.09 1005.40 1004.60 1003.69 1002.69 1001.62 1000.51 999.41
1002.55 1003.39 1004.29 1005.19 1006.04 1006.83 1007.51 1008.11 1008.62 1009.07 1009.48 1009.88 1010.29 1010.73 1011.19 1011.67 1012.12 1012.53 1012.85 1013.05 1013.11 1013.00 1012.74 1012.34 1011.84 1011.26 1010.66 1010.06 1009.51 1009.03 1008.60 1008.21 1007.85 1007.47 1007.02 1006.49 1005.83 1005.05 1004.13 1003.10 1001.98 1000.82 999.65
1001.71 1002.53 1003.42 1004.31 1005.15 1005.93 1006.61 1007.20 1007.72 1008.18 1008.62 1009.06 1009.53 1010.04 1010.58 1011.14 1011.69 1012.18 1012.58 1012.84 1012.94 1012.86 1012.61 1012.22 1011.71 1011.13 1010.53 1009.95 1009.43 1008.99 1008.61 1008.29 1008.00 1007.70 1007.33 1006.86 1006.26 1005.51 1004.62 1003.60 1002.48 1001.30 1000.11
1000.92 1001.72 1002.57 1003.43 1004.26 1005.01 1005.68 1006.27 1006.78 1007.26 1007.73 1008.21 1008.74 1009.31 1009.93 1010.57 1011.19 1011.75 1012.21 1012.53 1012.67 1012.62 1012.40 1012.02 1011.52 1010.96 1010.37 1009.82 1009.33 1008.92 1008.60 1008.34 1008.12 1007.88 1007.58 1007.18 1006.64 1005.95 1005.11 1004.14 1003.06 1001.92 1000.75
1000.22 1000.97 1001.78 1002.59 1003.38 1004.10 1004.75 1005.33 1005.85 1006.34 1006.84 1007.36 1007.94 1008.57 1009.25 1009.95 1010.63 1011.25 1011.77 1012.13 1012.31 1012.31 1012.11 1011.76 1011.29 1010.75 1010.20 1009.67 1009.22 1008.85 1008.57 1008.36 1008.18 1008.00 1007.77 1007.43 1006.96 1006.35 1005.58 1004.69 1003.69 1002.62 1001.54
999.60 1000.30 1001.05 1001.81 1002.55 1003.24 1003.86 1004.43 1004.95 1005.46 1005.98 1006.54 1007.16 1007.84 1008.57 1009.32 1010.05 1010.71 1011.27 1011.68 1011.90 1011.93 1011.78 1011.47 1011.03 1010.53 1010.01 1009.52 1009.10 1008.77 1008.52 1008.35 1008.21 1008.08 1007.90 1007.62 1007.23 1006.69 1006.02 1005.23 1004.34 1003.38 1002.41
999.04 999.68 1000.38 1001.10 1001.79 1002.44 1003.05 1003.60 1004.13 1004.65 1005.19 1005.79 1006.44 1007.16 1007.92 1008.71 1009.47 1010.17 1010.77 1011.21 1011.47 1011.54 1011.42 1011.15 1010.77 1010.31 1009.83 1009.38 1008.99 1008.69 1008.47 1008.32 1008.22 1008.12 1007.98 1007.77 1007.45 1007.00 1006.44 1005.76 1005.00 1004.18 1003.35
998.51 999.11 999.77 1000.45 1001.11 1001.73 1002.31 1002.86 1003.39 1003.93 1004.50 1005.11 1005.79 1006.54 1007.33 1008.14 1008.93 1009.66 1010.27 1010.74 1011.03 1011.14 1011.07 1010.85 1010.51 1010.10 1009.66 1009.25 1008.89 1008.62 1008.42 1008.29 1008.21 1008.15 1008.05 1007.89 1007.65 1007.31 1006.85 1006.31 1005.69 1005.02 1004.34
Thickness
5528 5513 5499 5483 5467 5451 5435 5419 5402 5386 5369 5352 5336 5319 5302 5285 5269 5254 5239 5225 5212 5201 5190 5180 5171 5161 5151 5141 5132 5124 5118 5116 5121 5132 5136 5141 5144 5151 5161 5174 5193 5213 5234
5526 5510 5495 5479 5463 5447 5431 5415 5399 5382 5366 5349 5333 5317 5301 5285 5269 5254 5241 5229 5216 5206 5197 5187 5178 5169 5159 5149 5140 5132 5127 5123 5124 5132 5139 5142 5146 5151 5161 5174 5191 5210 5229
5522 5507 5491 5475 5459 5444 5428 5412 5396 5380 5363 5347 5331 5315 5300 5284 5270 5256 5243 5232 5220 5210 5201 5193 5185 5175 5166 5156 5147 5140 5135 5133 5133 5136 5142 5145 5148 5153 5162 5174 5189 5207 5227
5519 5504 5489 5474 5458 5441 5425 5409 5393 5377 5361 5345 5330 5314 5300 5285 5271 5258 5246 5236 5226 5217 5208 5199 5190 5181 5172 5163 5155 5148 5144 5141 5141 5141 5144 5147 5151 5156 5161 5173 5190 5207 5226
5517 5502 5488 5471 5454 5437 5421 5406 5391 5376 5361 5345 5329 5314 5300 5286 5273 5261 5252 5243 5234 5224 5213 5202 5194 5186 5180 5173 5167 5159 5153 5150 5147 5146 5148 5150 5154 5156 5161 5171 5187 5205 5225
5515 5500 5484 5466 5449 5433 5419 5404 5389 5374 5359 5344 5328 5313 5300 5288 5277 5269 5260 5250 5237 5225 5215 5205 5197 5191 5184 5180 5174 5168 5162 5156 5152 5150 5151 5152 5154 5156 5163 5174 5188 5203 5224
5512 5496 5479 5462 5446 5431 5416 5401 5387 5373 5357 5342 5328 5314 5300 5288 5280 5272 5263 5252 5239 5227 5217 5208 5201 5195 5190 5181 5176 5172 5166 5161 5159 5156 5155 5155 5156 5160 5166 5178 5191 5205 5223
5508 5492 5475 5459 5444 5429 5414 5401 5386 5371 5356 5342 5328 5315 5302 5291 5283 5275 5266 5254 5241 5230 5220 5211 5203 5197 5192 5189 5185 5177 5170 5165 5162 5159 5158 5160 5163 5168 5174 5184 5196 5210 5226
5504 5490 5474 5458 5443 5428 5414 5401 5386 5371 5357 5343 5330 5317 5304 5292 5283 5276 5269 5256 5244 5233 5223 5215 5208 5202 5200 5198 5192 5183 5177 5172 5168 5166 5166 5167 5171 5175 5181 5189 5200 5212 5228
5505 5491 5474 5458 5443 5428 5415 5400 5386 5371 5357 5344 5332 5319 5306 5294 5284 5277 5269 5258 5248 5238 5228 5219 5212 5208 5206 5203 5195 5187 5182 5178 5173 5170 5169 5170 5172 5175 5183 5190 5198 5210 5225
5501 5485 5470 5455 5442 5428 5412 5398 5384 5371 5358 5344 5332 5320 5307 5295 5285 5276 5269 5259 5250 5240 5232 5223 5215 5212 5209 5205 5199 5191 5187 5184 5178 5174 5174 5175 5177 5181 5186 5194 5202 5212 5226
5493 5480 5466 5452 5438 5425 5410 5396 5382 5370 5356 5343 5330 5318 5307 5295 5285 5276 5269 5262 5253 5242 5234 5226 5220 5216 5211 5205 5199 5196 5193 5187 5181 5179 5178 5180 5182 5187 5194 5202 5211 5221 5232
5488 5475 5462 5449 5435 5423 5409 5395 5381 5369 5356 5345 5332 5319 5308 5297 5285 5277 5269 5262 5254 5245 5237 5230 5224 5217 5210 5204 5201 5199 5194 5188 5185 5183 5182 5184 5187 5193 5200 5210 5220 5230 5242
5483 5471 5458 5445 5432 5419 5407 5395 5382 5369 5357 5345 5333 5321 5308 5297 5286 5276 5268 5261 5254 5246 5237 5229 5223 5216 5210 5205 5202 5198 5195 5192 5190 5187 5186 5189 5193 5200 5207 5215 5226 5237 5249
5478 5466 5454 5442 5429 5416 5405 5394 5383 5372 5360 5347 5335 5322 5309 5297 5288 5282 5275 5266 5257 5249 5239 5229 5223 5216 5211 5207 5204 5202 5199 5197 5194 5193 5192 5194 5198 5204 5212 5220 5230 5241 5252
5474 5462 5451 5439 5426 5414 5402 5390 5381 5370 5361 5351 5339 5324 5312 5303 5294 5286 5277 5268 5259 5251 5239 5229 5222 5217 5212 5208 5206 5204 5203 5201 5198 5197 5197 5198 5202 5207 5215 5225 5234 5244 5256
5473 5462 5450 5437 5424 5413 5401 5389 5377 5368 5360 5352 5342 5330 5318 5306 5296 5286 5277 5268 5258 5249 5237 5229 5222 5218 5213 5210 5207 5206 5205 5204 5202 5201 5201 5203 5206 5212 5220 5229 5238 5249 5261
5470 5462 5450 5437 5425 5413 5402 5391 5379 5368 5357 5347 5340 5331 5319 5307 5296 5286 5276 5265 5255 5247 5238 5230 5225 5220 5216 5213 5211 5209 5208 5208 5207 5205 5206 5208 5211 5216 5224 5233 5242 5252 5265
5466 5457 5447 5435 5423 5411 5400 5389 5377 5367 5357 5347 5335 5326 5318 5307 5296 5285 5275 5263 5254 5247 5240 5234 5228 5223 5219 5216 5213 5211 5210 5210 5210 5209 5210 5212 5216 5221 5229 5237 5246 5258 5270
5462 5454 5444 5431 5420 5409 5398 5387 5376 5366 5356 5346 5337 5326 5314 5303 5291 5282 5272 5263 5256 5249 5242 5236 5231 5226 5222 5219 5217 5215 5214 5214 5213 5213 5214 5216 5220 5225 5233 5241 5251 5262 5274
5456 5448 5441 5427 5415 5406 5397 5388 5377 5367 5357 5348 5338 5328 5317 5303 5293 5283 5273 5265 5257 5251 5245 5239 5234 5229 5225 5222 5220 5219 5218 5217 5216 5216 5217 5220 5224 5229 5236 5244 5254 5266 5278
5449 5440 5433 5422 5411 5402 5394 5387 5377 5367 5358 5348 5337 5328 5321 5306 5294 5284 5275 5267 5259 5253 5247 5242 5236 5232 5228 5226 5224 5222 5221 5220 5219 5219 5221 5224 5227 5233 5239 5248 5257 5269 5281
5439 5430 5424 5415 5405 5398 5391 5382 5374 5365 5357 5348 5338 5328 5319 5308 5296 5286 5277 5269 5261 5255 5250 5245 5240 5236 5232 5230 5227 5225 5224 5223 5221 5221 5223 5226 5230 5235 5242 5249 5258 5269 5280
5426 5419 5413 5406 5397 5391 5385 5378 5370 5363 5355 5347 5338 5329 5319 5308 5298 5289 5279 5270 5263 5257 5252 5247 5243 5239 5235 5233 5230 5229 5228 5226 5224 5223 5223 5226 5230 5236 5242 5250 5259 5268 5279
5411 5406 5401 5396 5390 5384 5379 5373 5367 5360 5354 5347 5339 5330 5319 5309 5299 5289 5280 5271 5264 5259 5254 5250 5245 5241 5238 5235 5233 5232 5231 5229 5226 5224 5224 5225 5229 5235 5242 5249 5258 5267 5276
5397 5393 5389 5385 5380 5376 5373 5369 5363 5358 5352 5346 5339 5330 5320 5310 5300 5290 5280 5272 5265 5260 5255 5251 5247 5243 5240 5238 5236 5235 5233 5230 5228 5225 5223 5224 5227 5234 5240 5247 5255 5264 5272